ZHONGXING-6D

Last updated on Wed Sep 17 2025 00:02:51 GMT+0000 (Coordinated Universal Time)

1 52255U 22038A 25259.66446725 .00000000 00000+0 00000+0 0 9995 2 52255 0.0345 199.5293 0002413 24.8352 135.6161 1.00266999 12676
UTC large
Height (km)
Speed (km/s)
/
Latitude / Longitude
Inclination (degrees)
Orbital Period (minutes)
Azimuth
Elevation
Range (km)
Doppler Factor

Next 0 passes for location: London (51.5072 / 0.1276)

Sorry there are no passes over London.